Time,TemperatureF,DewpointF,PressureIn,WindDirection,WindDirectionDegrees,WindSpeedMPH,WindSpeedGustMPH,Humidity,HourlyPrecipIn,Conditions,Clouds,dailyrainin,SolarRadiationWatts/m^2,SoftwareType,DateUTC
2013-02-22 00:01:00,43.0,17.0,29.86,West,273,17.0,33.0,35,-99.99,,,-99.99,0.000000,,2013-02-22 07:01:00,
2013-02-22 00:11:00,43.0,17.0,29.86,West,274,18.0,32.0,34,-99.99,,,-99.99,0.000000,,2013-02-22 07:11:00,
2013-02-22 00:21:00,43.0,17.0,29.86,West,274,18.0,32.0,34,-99.99,,,-99.99,0.000000,,2013-02-22 07:21:00,
2013-02-22 00:31:00,43.0,17.0,29.87,West,276,18.0,31.0,34,-99.99,,,-99.99,0.000000,,2013-02-22 07:31:00,
2013-02-22 00:42:00,43.0,16.0,29.87,West,274,18.0,32.0,33,-99.99,,,-99.99,0.000000,,2013-02-22 07:42:00,
2013-02-22 00:52:00,43.0,16.0,29.87,West,274,18.0,32.0,33,-99.99,,,-99.99,0.000000,,2013-02-22 07:52:00,
2013-02-22 01:01:00,43.0,15.0,29.87,West,276,18.0,30.0,31,-99.99,,,-99.99,0.000000,,2013-02-22 08:01:00,
2013-02-22 01:11:00,43.0,15.0,29.87,West,280,19.0,34.0,31,-99.99,,,-99.99,0.000000,,2013-02-22 08:11:00,
2013-02-22 01:21:00,43.0,15.0,29.87,West,280,19.0,34.0,31,-99.99,,,-99.99,0.000000,,2013-02-22 08:21:00,
2013-02-22 01:31:00,43.0,15.0,29.87,West,280,19.0,34.0,31,-99.99,,,-99.99,0.000000,,2013-02-22 08:31:00,
2013-02-22 01:41:00,44.0,15.0,29.87,West,275,20.0,35.0,30,-99.99,,,-99.99,0.000000,,2013-02-22 08:41:00,
2013-02-22 01:52:00,44.0,15.0,29.87,West,275,20.0,35.0,30,-99.99,,,-99.99,0.000000,,2013-02-22 08:52:00,
2013-02-22 02:03:00,44.0,15.0,29.87,West,275,20.0,35.0,30,-99.99,,,-99.99,0.000000,,2013-02-22 09:03:00,
2013-02-22 02:11:00,44.0,15.0,29.87,West,277,19.0,33.0,30,-99.99,,,-99.99,0.000000,,2013-02-22 09:11:00,
2013-02-22 02:21:00,44.0,15.0,29.87,West,277,19.0,33.0,30,-99.99,,,-99.99,0.000000,,2013-02-22 09:21:00,
2013-02-22 02:32:00,43.0,14.0,29.86,West,277,15.0,27.0,30,-99.99,,,-99.99,0.000000,,2013-02-22 09:32:00,
2013-02-22 02:42:00,43.0,14.0,29.86,West,278,14.0,29.0,29,-99.99,,,-99.99,0.000000,,2013-02-22 09:42:00,
2013-02-22 02:52:00,43.0,14.0,29.86,West,278,14.0,29.0,29,-99.99,,,-99.99,0.000000,,2013-02-22 09:52:00,
2013-02-22 03:01:00,44.0,14.0,29.86,WNW,285,15.0,27.0,28,-99.99,,,-99.99,0.000000,,2013-02-22 10:01:00,
2013-02-22 03:11:00,44.0,14.0,29.87,WNW,283,13.0,24.0,29,-99.99,,,-99.99,0.000000,,2013-02-22 10:11:00,
2013-02-22 03:21:00,44.0,14.0,29.87,WNW,283,13.0,24.0,29,-99.99,,,-99.99,0.000000,,2013-02-22 10:21:00,
2013-02-22 03:32:00,44.0,14.0,29.87,WNW,291,14.0,24.0,29,-99.99,,,-99.99,0.000000,,2013-02-22 10:32:00,
2013-02-22 03:42:00,44.0,14.0,29.87,WNW,291,14.0,24.0,29,-99.99,,,-99.99,0.000000,,2013-02-22 10:42:00,
2013-02-22 03:52:00,44.0,14.0,29.87,WNW,291,14.0,24.0,29,-99.99,,,-99.99,0.000000,,2013-02-22 10:52:00,
2013-02-22 04:01:00,39.0,16.0,29.88,ENE,75,5.0,10.0,39,-99.99,,,-99.99,0.000000,,2013-02-22 11:01:00,
2013-02-22 04:11:00,35.0,18.0,29.88,SE,138,5.0,8.0,48,-99.99,,,-99.99,0.000000,,2013-02-22 11:11:00,
2013-02-22 04:21:00,35.0,18.0,29.88,SE,138,5.0,8.0,48,-99.99,,,-99.99,0.000000,,2013-02-22 11:21:00,
2013-02-22 04:32:00,35.0,18.0,29.88,SE,138,5.0,8.0,48,-99.99,,,-99.99,0.000000,,2013-02-22 11:32:00,
2013-02-22 04:42:00,33.0,18.0,29.89,SSE,164,5.0,7.0,53,-99.99,,,-99.99,0.000000,,2013-02-22 11:42:00,
2013-02-22 04:52:00,33.0,18.0,29.89,SSE,164,5.0,7.0,53,-99.99,,,-99.99,0.000000,,2013-02-22 11:52:00,
2013-02-22 05:02:00,33.0,18.0,29.89,SSE,164,5.0,7.0,53,-99.99,,,-99.99,0.000000,,2013-02-22 12:02:00,
2013-02-22 05:11:00,33.0,19.0,29.90,SE,134,3.0,4.0,55,-99.99,,,-99.99,0.000000,,2013-02-22 12:11:00,
2013-02-22 05:22:00,33.0,19.0,29.90,SE,134,3.0,4.0,55,-99.99,,,-99.99,0.000000,,2013-02-22 12:22:00,
2013-02-22 05:32:00,33.0,19.0,29.90,SE,134,3.0,4.0,55,-99.99,,,-99.99,0.000000,,2013-02-22 12:32:00,
2013-02-22 05:42:00,32.0,19.0,29.91,South,188,2.0,4.0,59,-99.99,,,-99.99,0.000000,,2013-02-22 12:42:00,
2013-02-22 05:52:00,32.0,19.0,29.91,South,188,2.0,4.0,59,-99.99,,,-99.99,0.000000,,2013-02-22 12:52:00,
2013-02-22 06:02:00,32.0,19.0,29.91,South,188,2.0,4.0,59,-99.99,,,-99.99,0.000000,,2013-02-22 13:02:00,
2013-02-22 06:11:00,32.0,19.0,29.91,South,172,2.0,4.0,57,-99.99,,,-99.99,0.000000,,2013-02-22 13:11:00,
2013-02-22 06:22:00,32.0,19.0,29.91,South,172,2.0,4.0,57,-99.99,,,-99.99,0.000000,,2013-02-22 13:22:00,
2013-02-22 06:32:00,32.0,19.0,29.92,SSW,201,2.0,4.0,58,-99.99,,,-99.99,0.000000,,2013-02-22 13:32:00,
2013-02-22 06:42:00,33.0,19.0,29.93,SW,226,2.0,5.0,55,-99.99,,,-99.99,0.000000,,2013-02-22 13:42:00,
2013-02-22 06:52:00,33.0,19.0,29.93,SW,226,2.0,5.0,55,-99.99,,,-99.99,0.000000,,2013-02-22 13:52:00,
2013-02-22 07:01:00,35.0,20.0,29.94,WNW,284,4.0,8.0,52,-99.99,,,-99.99,0.000000,,2013-02-22 14:01:00,
2013-02-22 07:11:00,36.0,20.0,29.94,WNW,301,5.0,10.0,52,-99.99,,,-99.99,4.180000,,2013-02-22 14:11:00,
2013-02-22 07:21:00,36.0,20.0,29.94,WNW,301,5.0,10.0,52,-99.99,,,-99.99,4.180000,,2013-02-22 14:21:00,
2013-02-22 07:32:00,33.0,20.0,29.95,South,180,4.0,7.0,58,-99.99,,,-99.99,27.889999,,2013-02-22 14:32:00,
2013-02-22 07:42:00,34.0,21.0,29.96,SSE,166,2.0,4.0,58,-99.99,,,-99.99,58.580002,,2013-02-22 14:42:00,
2013-02-22 07:53:00,34.0,21.0,29.96,SSE,166,2.0,4.0,58,-99.99,,,-99.99,58.580002,,2013-02-22 14:53:00,
2013-02-22 08:01:00,34.0,21.0,29.96,SSE,166,2.0,4.0,58,-99.99,,,-99.99,58.580002,,2013-02-22 15:01:00,
2013-02-22 08:11:00,36.0,21.0,29.96,WSW,241,1.0,3.0,53,-99.99,,,-99.99,79.500000,,2013-02-22 15:11:00,
2013-02-22 08:21:00,36.0,21.0,29.96,WSW,241,1.0,3.0,53,-99.99,,,-99.99,79.500000,,2013-02-22 15:21:00,
2013-02-22 08:32:00,38.0,21.0,29.97,NNW,327,3.0,10.0,49,-99.99,,,-99.99,175.029999,,2013-02-22 15:32:00,
2013-02-22 08:42:00,42.0,20.0,29.97,North,357,2.0,3.0,40,-99.99,,,-99.99,292.179993,,2013-02-22 15:42:00,
2013-02-22 08:52:00,42.0,20.0,29.97,North,357,2.0,3.0,40,-99.99,,,-99.99,292.179993,,2013-02-22 15:52:00,
2013-02-22 09:01:00,43.0,20.0,29.98,North,10,2.0,3.0,38,-99.99,,,-99.99,347.970001,,2013-02-22 16:01:00,
2013-02-22 09:12:00,43.0,20.0,29.98,North,10,2.0,3.0,38,-99.99,,,-99.99,347.970001,,2013-02-22 16:12:00,
2013-02-22 09:22:00,43.0,20.0,29.98,North,10,2.0,3.0,38,-99.99,,,-99.99,347.970001,,2013-02-22 16:22:00,
2013-02-22 09:32:00,44.0,18.0,29.99,North,5,6.0,12.0,35,-99.99,,,-99.99,454.660004,,2013-02-22 16:32:00,
2013-02-22 09:42:00,45.0,18.0,29.99,North,349,6.0,11.0,33,-99.99,,,-99.99,502.079987,,2013-02-22 16:42:00,
2013-02-22 09:52:00,45.0,18.0,29.99,North,349,6.0,11.0,33,-99.99,,,-99.99,502.079987,,2013-02-22 16:52:00,
2013-02-22 10:01:00,46.0,18.0,29.99,NW,318,12.0,20.0,32,-99.99,,,-99.99,548.099976,,2013-02-22 17:01:00,
2013-02-22 10:11:00,47.0,18.0,29.99,WNW,302,7.0,15.0,31,-99.99,,,-99.99,592.729980,,2013-02-22 17:11:00,
2013-02-22 10:21:00,47.0,18.0,29.99,WNW,302,7.0,15.0,31,-99.99,,,-99.99,592.729980,,2013-02-22 17:21:00,
2013-02-22 10:31:00,48.0,18.0,29.99,SSW,198,4.0,8.0,30,-99.99,,,-99.99,631.090027,,2013-02-22 17:31:00,
2013-02-22 10:42:00,48.0,18.0,29.99,SSW,198,4.0,8.0,30,-99.99,,,-99.99,631.090027,,2013-02-22 17:42:00,
2013-02-22 10:52:00,48.0,18.0,29.99,SSW,198,4.0,8.0,30,-99.99,,,-99.99,631.090027,,2013-02-22 17:52:00,
2013-02-22 11:01:00,49.0,12.0,29.99,West,278,11.0,21.0,22,-99.99,,,-99.99,702.909973,,2013-02-22 18:01:00,
2013-02-22 11:12:00,49.0,12.0,29.99,West,281,11.0,19.0,22,-99.99,,,-99.99,732.200012,,2013-02-22 18:12:00,
2013-02-22 11:22:00,49.0,12.0,29.99,West,281,11.0,19.0,22,-99.99,,,-99.99,732.200012,,2013-02-22 18:22:00,
2013-02-22 11:32:00,49.0,12.0,29.99,WSW,252,12.0,19.0,21,-99.99,,,-99.99,759.400024,,2013-02-22 18:32:00,
2013-02-22 11:42:00,49.0,11.0,29.99,West,267,11.0,23.0,21,-99.99,,,-99.99,781.010010,,2013-02-22 18:42:00,
2013-02-22 11:52:00,49.0,12.0,29.99,West,275,12.0,22.0,21,-99.99,,,-99.99,801.239990,,2013-02-22 18:52:00,
2013-02-22 12:01:00,49.0,12.0,29.99,West,275,12.0,22.0,21,-99.99,,,-99.99,801.239990,,2013-02-22 19:01:00,
2013-02-22 12:11:00,49.0,13.0,29.99,WSW,254,13.0,21.0,22,-99.99,,,-99.99,811.000000,,2013-02-22 19:11:00,
2013-02-22 12:21:00,49.0,13.0,29.99,WSW,254,13.0,21.0,22,-99.99,,,-99.99,811.000000,,2013-02-22 19:21:00,
2013-02-22 12:31:00,49.0,15.0,29.99,WSW,258,12.0,22.0,25,-99.99,,,-99.99,817.969971,,2013-02-22 19:31:00,
2013-02-22 12:41:00,49.0,16.0,29.98,West,262,9.0,20.0,26,-99.99,,,-99.99,822.849976,,2013-02-22 19:41:00,
2013-02-22 12:52:00,49.0,16.0,29.98,West,262,9.0,20.0,26,-99.99,,,-99.99,822.849976,,2013-02-22 19:52:00,
2013-02-22 13:01:00,50.0,15.0,29.97,SW,227,9.0,25.0,24,-99.99,,,-99.99,796.349976,,2013-02-22 20:01:00,
2013-02-22 13:11:00,50.0,15.0,29.96,WNW,292,10.0,21.0,23,-99.99,,,-99.99,739.169983,,2013-02-22 20:11:00,
2013-02-22 13:21:00,50.0,15.0,29.96,WNW,292,10.0,21.0,23,-99.99,,,-99.99,739.169983,,2013-02-22 20:21:00,
2013-02-22 13:31:00,49.0,14.0,29.95,North,10,6.0,19.0,24,-99.99,,,-99.99,571.809998,,2013-02-22 20:31:00,
2013-02-22 13:41:00,50.0,14.0,29.94,South,175,6.0,16.0,23,-99.99,,,-99.99,741.960022,,2013-02-22 20:41:00,
2013-02-22 13:52:00,50.0,14.0,29.94,South,175,6.0,16.0,23,-99.99,,,-99.99,741.960022,,2013-02-22 20:52:00,
2013-02-22 14:01:00,51.0,15.0,29.93,WSW,243,9.0,20.0,22,-99.99,,,-99.99,785.890015,,2013-02-22 21:01:00,
2013-02-22 14:11:00,52.0,14.0,29.91,SSW,195,6.0,19.0,22,-99.99,,,-99.99,762.190002,,2013-02-22 21:11:00,
2013-02-22 14:21:00,52.0,14.0,29.91,SSW,195,6.0,19.0,22,-99.99,,,-99.99,762.190002,,2013-02-22 21:21:00,
2013-02-22 14:32:00,52.0,15.0,29.91,WSW,241,9.0,25.0,21,-99.99,,,-99.99,739.169983,,2013-02-22 21:32:00,
2013-02-22 14:42:00,52.0,15.0,29.91,SW,233,11.0,25.0,22,-99.99,,,-99.99,711.979980,,2013-02-22 21:42:00,
2013-02-22 14:52:00,52.0,15.0,29.91,SW,233,11.0,25.0,22,-99.99,,,-99.99,711.979980,,2013-02-22 21:52:00,
2013-02-22 15:01:00,52.0,15.0,29.91,WSW,258,9.0,21.0,22,-99.99,,,-99.99,680.599976,,2013-02-22 22:01:00,
2013-02-22 15:11:00,53.0,15.0,29.90,WSW,246,11.0,22.0,22,-99.99,,,-99.99,644.340027,,2013-02-22 22:11:00,
2013-02-22 15:21:00,53.0,15.0,29.90,WSW,246,11.0,22.0,22,-99.99,,,-99.99,644.340027,,2013-02-22 22:21:00,
2013-02-22 15:31:00,53.0,15.0,29.90,WSW,246,11.0,22.0,22,-99.99,,,-99.99,644.340027,,2013-02-22 22:31:00,
2013-02-22 15:41:00,53.0,15.0,29.90,West,269,11.0,33.0,21,-99.99,,,-99.99,557.869995,,2013-02-22 22:41:00,
2013-02-22 15:52:00,53.0,15.0,29.90,West,269,11.0,33.0,21,-99.99,,,-99.99,557.869995,,2013-02-22 22:52:00,
2013-02-22 16:01:00,53.0,15.0,29.90,SW,236,13.0,35.0,21,-99.99,,,-99.99,511.839996,,2013-02-22 23:01:00,
2013-02-22 16:11:00,53.0,14.0,29.90,WSW,256,13.0,30.0,20,-99.99,,,-99.99,462.329987,,2013-02-22 23:11:00,
2013-02-22 16:21:00,53.0,14.0,29.90,WSW,256,13.0,30.0,20,-99.99,,,-99.99,462.329987,,2013-02-22 23:21:00,
2013-02-22 16:31:00,52.0,15.0,29.90,WSW,242,17.0,34.0,22,-99.99,,,-99.99,414.220001,,2013-02-22 23:31:00,
2013-02-22 16:41:00,52.0,15.0,29.90,WSW,242,17.0,34.0,22,-99.99,,,-99.99,414.220001,,2013-02-22 23:41:00,
2013-02-22 16:52:00,52.0,15.0,29.90,WSW,242,17.0,34.0,22,-99.99,,,-99.99,414.220001,,2013-02-22 23:52:00,
2013-02-22 17:01:00,52.0,16.0,29.90,WSW,250,13.0,34.0,23,-99.99,,,-99.99,347.269989,,2013-02-23 00:01:00,
2013-02-22 17:11:00,51.0,16.0,29.89,WSW,255,16.0,31.0,24,-99.99,,,-99.99,166.660004,,2013-02-23 00:11:00,
2013-02-22 17:21:00,51.0,16.0,29.89,WSW,255,16.0,31.0,24,-99.99,,,-99.99,166.660004,,2013-02-23 00:21:00,
2013-02-22 17:32:00,51.0,16.0,29.89,WSW,250,16.0,30.0,25,-99.99,,,-99.99,185.490005,,2013-02-23 00:32:00,
2013-02-22 17:42:00,50.0,16.0,29.88,West,259,20.0,39.0,24,-99.99,,,-99.99,106.690002,,2013-02-23 00:42:00,
2013-02-22 17:52:00,50.0,16.0,29.88,West,259,20.0,39.0,24,-99.99,,,-99.99,106.690002,,2013-02-23 00:52:00,
2013-02-22 18:01:00,49.0,16.0,29.88,WSW,251,22.0,39.0,26,-99.99,,,-99.99,20.219999,,2013-02-23 01:01:00,
2013-02-22 18:11:00,49.0,17.0,29.88,WSW,249,21.0,47.0,28,-99.99,,,-99.99,13.950000,,2013-02-23 01:11:00,
2013-02-22 18:21:00,49.0,17.0,29.88,WSW,249,21.0,47.0,28,-99.99,,,-99.99,13.950000,,2013-02-23 01:21:00,
2013-02-22 18:31:00,48.0,17.0,29.88,WSW,254,22.0,39.0,28,-99.99,,,-99.99,7.670000,,2013-02-23 01:31:00,
2013-02-22 18:42:00,48.0,17.0,29.89,West,259,26.0,42.0,28,-99.99,,,-99.99,1.390000,,2013-02-23 01:42:00,
2013-02-22 18:52:00,48.0,17.0,29.89,West,259,26.0,42.0,28,-99.99,,,-99.99,1.390000,,2013-02-23 01:52:00,
2013-02-22 19:01:00,48.0,17.0,29.89,West,259,26.0,42.0,28,-99.99,,,-99.99,1.390000,,2013-02-23 02:01:00,
2013-02-22 19:11:00,48.0,17.0,29.88,WSW,251,28.0,45.0,29,-99.99,,,-99.99,0.000000,,2013-02-23 02:11:00,
2013-02-22 19:21:00,48.0,17.0,29.88,WSW,251,28.0,45.0,29,-99.99,,,-99.99,0.000000,,2013-02-23 02:21:00,
2013-02-22 19:31:00,48.0,18.0,29.88,WSW,256,28.0,47.0,29,-99.99,,,-99.99,0.000000,,2013-02-23 02:31:00,
2013-02-22 19:42:00,48.0,18.0,29.88,West,264,30.0,50.0,29,-99.99,,,-99.99,0.000000,,2013-02-23 02:42:00,
2013-02-22 19:52:00,48.0,18.0,29.88,West,264,30.0,50.0,29,-99.99,,,-99.99,0.000000,,2013-02-23 02:52:00,
2013-02-22 20:01:00,48.0,18.0,29.88,West,263,27.0,47.0,30,-99.99,,,-99.99,0.000000,,2013-02-23 03:01:00,
2013-02-22 20:11:00,47.0,19.0,29.89,West,267,26.0,44.0,31,-99.99,,,-99.99,0.000000,,2013-02-23 03:11:00,
2013-02-22 20:21:00,47.0,19.0,29.89,West,267,26.0,44.0,31,-99.99,,,-99.99,0.000000,,2013-02-23 03:21:00,
2013-02-22 20:32:00,47.0,19.0,29.89,West,265,29.0,49.0,32,-99.99,,,-99.99,0.000000,,2013-02-23 03:32:00,
2013-02-22 20:42:00,47.0,20.0,29.90,WSW,257,29.0,48.0,33,-99.99,,,-99.99,0.000000,,2013-02-23 03:42:00,
2013-02-22 20:52:00,47.0,20.0,29.90,WSW,257,29.0,48.0,33,-99.99,,,-99.99,0.000000,,2013-02-23 03:52:00,
2013-02-22 21:00:00,46.0,19.0,29.91,West,262,27.0,45.0,33,-99.99,,,-99.99,0.000000,,2013-02-23 04:00:00,
2013-02-22 21:01:00,47.0,21.0,29.91,WSW,252,27.0,46.0,35,-99.99,,,-99.99,0.000000,,2013-02-23 04:01:00,
2013-02-22 21:11:00,47.0,21.0,29.91,WSW,256,27.0,44.0,35,-99.99,,,-99.99,0.000000,,2013-02-23 04:11:00,
2013-02-22 21:21:00,47.0,21.0,29.91,WSW,256,27.0,44.0,35,-99.99,,,-99.99,0.000000,,2013-02-23 04:21:00,
2013-02-22 21:31:00,47.0,21.0,29.91,WSW,256,27.0,44.0,35,-99.99,,,-99.99,0.000000,,2013-02-23 04:31:00,
2013-02-22 21:41:00,46.0,19.0,29.91,West,262,27.0,45.0,33,-99.99,,,-99.99,0.000000,,2013-02-23 04:41:00,
2013-02-22 21:52:00,46.0,19.0,29.91,West,262,27.0,45.0,33,-99.99,,,-99.99,0.000000,,2013-02-23 04:52:00,
2013-02-22 22:32:00,46.0,16.0,29.96,West,263,23.0,40.0,29,-99.99,,,-99.99,0.000000,,2013-02-23 05:32:00,
2013-02-22 22:42:00,45.0,17.0,29.98,West,276,18.0,37.0,31,-99.99,,,-99.99,0.000000,,2013-02-23 05:42:00,
2013-02-22 22:52:00,45.0,17.0,29.98,West,276,18.0,37.0,31,-99.99,,,-99.99,0.000000,,2013-02-23 05:52:00,
2013-02-22 23:01:00,45.0,17.0,29.99,West,273,18.0,31.0,32,-99.99,,,-99.99,0.000000,,2013-02-23 06:01:00,
2013-02-22 23:11:00,45.0,17.0,29.99,West,268,17.0,30.0,32,-99.99,,,-99.99,0.000000,,2013-02-23 06:11:00,
2013-02-22 23:22:00,45.0,17.0,29.99,West,268,17.0,30.0,32,-99.99,,,-99.99,0.000000,,2013-02-23 06:22:00,
2013-02-22 23:31:00,45.0,17.0,29.99,West,273,14.0,27.0,31,-99.99,,,-99.99,0.000000,,2013-02-23 06:31:00,
2013-02-22 23:41:00,45.0,17.0,29.99,West,273,14.0,27.0,31,-99.99,,,-99.99,0.000000,,2013-02-23 06:41:00,
2013-02-22 23:52:00,45.0,17.0,29.99,West,273,14.0,27.0,31,-99.99,,,-99.99,0.000000,,2013-02-23 06:52:00,